Regional Weather Roundup
Issued by NWS

Home | Current Version | Previous Version | Text Only | Print | Product List | Glossary On
Versions: 1 2 3 4 5 6 7 8 9 10 11 12 13 14 15 16 17 18 19 20 21 22 23 24 25 26 27 28 29 30 31 32 33 34 35 36 37 38 39 40 41 42 43 44 45 46 47 48 49 50
000
ASUS42 KFFC 010103
RWRGA
WEATHER ROUNDUP FOR GEORGIA
NATIONAL WEATHER SERVICE PEACHTREE CITY GA
900 PM EDT THU JUL 31 2014

NOTE: "FAIR" INDICATES FEW OR NO CLOUDS BELOW 12,000 FEET WITH NO
SIGNIFICANT WEATHER AND/OR OBSTRUCTIONS TO VISIBILITY.

* = USE WITH CAUTION. THE STATIONS MARKED WITH AN ASTERISK MAY NOT
REPORT WEATHER SUCH AS PRECIPITATION, FOG, OR THUNDER AND ARE NOT
QUALITY CONTROLLED BY NWS.

THE REMARK "TC" DENOTES TEMPERATURE READING IN DEGREES CELSIUS.

GAZ001>058-010200-
NORTH GEORGIA

CITY           SKY/WX    TMP DP  RH WIND       PRES   REMARKS
ATLANTA        CLOUDY    71  67  87 E10       30.07S
ATHENS         CLOUDY    68  63  84 NE7       30.09S
CHAMBLEE       CLOUDY    69  64  84 VRB6      30.09R
PEACHTREE CITY CLOUDY    72  69  90 VRB6      30.06S
ROME           CLOUDY    74  66  76 SE6       30.07R
WEST ATLANTA   LGT RAIN  70  67  90 NE6       30.07F
GAINESVILLE    CLOUDY    67  63  87 E8        30.12S
CARTERSVILLE   LGT RAIN  70  68  93 CALM      30.08S


CITY           SKY/WX    TMP DP  RH WIND       PRES   REMARKS
DALTON*        CLOUDY    72  68  88 CALM      30.07S
LAWRENCEVILLE* CLEAR     66  59  77 E9        30.09R
MARIETTA       DRIZZLE   69  67  95 VRB7      30.09S
KENNESAW*      LGT RAIN  70  66  88 E8        30.10S
$$

GAZ059>098-102>109-010200-
CENTRAL GEORGIA

CITY           SKY/WX    TMP DP  RH WIND       PRES   REMARKS
AUGUSTA-BUSH   CLOUDY    74  70  87 NE8       30.04S
AUGUSTA-DANIEL CLOUDY    74  70  87 NE8       30.06S
COLUMBUS       MOCLDY    84  64  50 N5        29.99S
MACON          MOCLDY    76  70  82 NE9       30.01R
ROBINS AFB     MOCLDY    77  70  79 VRB5      30.01R


CITY           SKY/WX    TMP DP  RH WIND       PRES   REMARKS
LAGRANGE*      MOCLDY    80  72  76 NE3G16    30.03R
SYLVANIA*      MOCLDY    76  75  96 E5        30.03S
MILLEDGEVILLE* MOCLDY    70  64  83 NE5       30.05S
$$

GAZ099>101-110>166-010200-
SOUTH GEORGIA

CITY           SKY/WX    TMP DP  RH WIND       PRES   REMARKS
SAVANNAH       CLOUDY    79  76  90 NE7       30.00F
VALDOSTA       PTCLDY    81  64  56 CALM      29.97S
ALMA           MOCLDY    82  65  56 VRB5      29.97S
ST SIMONS      PTCLDY    84  71  65 SE10      29.98S
FT STEWART     MOCLDY    77  73  87 NE2       29.99S
ALBANY         MOCLDY    82  65  56 CALM      29.99S
HUNTER AFB     LGT RAIN  82  72  73 N1        29.98S
MOODY AFB      PTCLDY    83  64  51 CALM      29.96S
BRUNSWICK      PTCLDY    86  68  54 SE6       29.99S


CITY           SKY/WX    TMP DP  RH WIND       PRES   REMARKS
BAINBRIDGE*    CLEAR     81  68  65 CALM      29.98S
MOULTRIE*      MOCLDY    81  64  57 CALM      29.98F
VIDALIA*         N/A     77  73  88 NE6       30.00S
WAYCROSS*      MOCLDY    88  72  58 S5        29.97S HX  94
DOUGLAS*       PTCLDY    81  63  54 CALM      29.98F
$$


USA.gov is the U.S. government's official web portal to all federal, state and local government web resources and services.